AFR69ZJ LFPG-GMMX

Flight info

Callsign AFR69ZJ
Flight time N/A
Altitude 37000
Route AGOPA DCT ARKIP DCT ARMAL DCT ARTAX DCT BEBIX DCT LMG DCT UVELI DCT OSMOB DCT ARVID DCT PPN DCT NOLSA DCT ALEPO DCT VASUM N10 BAN DCT GOTOR DCT KAMPO DCT MONTO DCT MOLIN DCT VJF N10 LINTO UN10 BARIS UB11 SLK UW900 TIXAL UG850 OBOGA
Aircraft A20N/M-SDE2E3FGHIRWXY/LB1

Departure

Time 2026-05-04 10:09
Airport Charles de Gaulle International Airport (LFPG)

Arrival

Time N/A
Airport Marrakesh Menara Airport (GMMX)
Time Latitude Longitude Altitude Speed Heading
2026-05-04 09:37 49.00683 2.58022 353 ft 0 kts 257°
2026-05-04 09:57 49.00684 2.58024 353 ft 2 kts 257°
2026-05-04 09:57 49.00689 2.58063 353 ft 4 kts 259°
2026-05-04 09:57 49.00693 2.58103 360 ft 4 kts 274°
2026-05-04 09:58 49.00687 2.58134 356 ft 3 kts 347°
2026-05-04 09:58 49.00684 2.58135 355 ft 1 kts 355°
2026-05-04 10:02 49.00852 2.57103 355 ft 23 kts 264°
2026-05-04 10:04 49.00761 2.55903 355 ft 18 kts 265°
2026-05-04 10:04 49.00748 2.55707 359 ft 19 kts 262°
2026-05-04 10:04 49.00728 2.55505 355 ft 20 kts 261°
2026-05-04 10:04 49.00650 2.55393 355 ft 16 kts 172°
2026-05-04 10:05 49.00541 2.55444 361 ft 18 kts 160°
2026-05-04 10:05 49.00418 2.55481 353 ft 18 kts 164°
2026-05-04 10:05 49.00292 2.55535 353 ft 19 kts 164°
2026-05-04 10:05 49.00160 2.55593 355 ft 20 kts 164°
2026-05-04 10:06 49.00020 2.55655 354 ft 21 kts 163°
2026-05-04 10:06 48.99892 2.55761 358 ft 21 kts 145°
2026-05-04 10:06 48.99762 2.55816 358 ft 18 kts 172°
2026-05-04 10:08 48.99627 2.56180 360 ft 0 kts 76°
2026-05-04 10:08 48.99630 2.56197 364 ft 15 kts 76°
2026-05-04 10:08 48.99662 2.56785 357 ft 95 kts 88°
2026-05-04 10:08 48.99726 2.58123 361 ft 156 kts 83°
2026-05-04 10:09 48.99790 2.59986 641 ft 181 kts 86°
2026-05-04 10:09 48.99839 2.61221 1303 ft 173 kts 85°
2026-05-04 10:09 48.99934 2.63080 2131 ft 184 kts 84°
2026-05-04 10:09 49.00090 2.65826 2935 ft 210 kts 84°
2026-05-04 10:10 49.00179 2.67359 3393 ft 221 kts 84°
2026-05-04 10:10 49.00364 2.70544 4508 ft 234 kts 84°
2026-05-04 10:10 49.00462 2.72244 4845 ft 246 kts 85°
2026-05-04 10:10 49.00657 2.75844 5625 ft 263 kts 86°
2026-05-04 10:11 49.00753 2.77735 6180 ft 266 kts 88°
2026-05-04 10:11 49.00588 2.80545 6964 ft 270 kts 100°
2026-05-04 10:11 49.00267 2.83391 7738 ft 275 kts 101°
2026-05-04 10:11 48.99938 2.86275 8546 ft 278 kts 101°
2026-05-04 10:12 48.99607 2.89162 9274 ft 284 kts 102°
2026-05-04 10:12 48.99266 2.92152 10005 ft 289 kts 102°
2026-05-04 10:12 48.98911 2.95248 10453 ft 307 kts 102°
2026-05-04 10:12 48.98382 2.98495 10713 ft 324 kts 116°
2026-05-04 10:13 48.97080 3.01270 11338 ft 324 kts 140°
2026-05-04 10:13 48.95175 3.03039 12070 ft 323 kts 162°
2026-05-04 10:13 48.92963 3.03548 12730 ft 324 kts 185°
2026-05-04 10:13 48.90795 3.02696 13416 ft 324 kts 207°
2026-05-04 10:14 48.89008 3.00621 14077 ft 328 kts 229°
2026-05-04 10:14 48.87874 2.97611 14767 ft 332 kts 251°
2026-05-04 10:16 48.85325 2.72932 19088 ft 349 kts 257°
2026-05-04 10:16 48.84967 2.70143 19531 ft 351 kts 257°
2026-05-04 10:16 48.84495 2.66539 20044 ft 353 kts 255°
2026-05-04 10:16 48.83748 2.62886 20269 ft 365 kts 246°
2026-05-04 10:17 48.82609 2.59476 20649 ft 368 kts 236°
2026-05-04 10:17 48.81152 2.56288 21127 ft 371 kts 232°